Regional Weather Roundup
Issued by NWS

Home | Current Version | Previous Version | Graphics & Text | Print | Product List | Glossary Off
Versions: 1 2 3 4 5 6 7 8 9 10 11 12 13 14 15 16 17 18 19 20 21 22 23 24 25 26 27 28 29 30 31 32 33 34 35 36 37 38 39 40 41 42 43 44 45 46 47 48 49 50

000
ASUS43 KMKX 280021
RWRWI

WISCONSIN REGIONAL WEATHER ROUNDUP
NATIONAL WEATHER SERVICE MILWAUKEE/SULLIVAN WI
700 PM CDT MON MAR 27 2017

NOTE: "FAIR" INDICATES FEW OR NO CLOUDS BELOW 12,000 FEET WITH NO
SIGNIFICANT WEATHER AND/OR OBSTRUCTIONS TO VISIBILITY.

WIZ001-002-006>008-014>016-023>028-280100-
NORTHWEST WISCONSIN

CITY           SKY/WX    TMP DP  RH WIND       PRES   REMARKS
SUPERIOR ARPT  CLEAR     42  32  67 E3        30.00S
6HR MIN TEMP:  42; 6HR MAX TEMP:  49;

ASHLAND        CLOUDY    40  33  76 N5        30.01R
6HR MIN TEMP:  40; 6HR MAX TEMP:  50;

HAYWARD        PTCLDY    51  31  46 NE8       29.96R
6HR MIN TEMP:  51; 6HR MAX TEMP:  57;

SIREN          CLEAR     54  32  43 N9        29.96R
6HR MIN TEMP:  51; 6HR MAX TEMP:  58;

CUMBERLAND     CLEAR     52  32  46 NE3       29.95S
RICE LAKE      PTCLDY    50  36  58 CALM      29.97S
6HR MIN TEMP:  44; 6HR MAX TEMP:  55;

CHETEK         PTCLDY    50  37  61 CALM      29.96R
LADYSMITH      CLEAR     51  34  52 CALM      29.97R
6HR MIN TEMP:  44; 6HR MAX TEMP:  53;

EAU CLAIRE     CLOUDY    46  37  71 E3        29.96S
6HR MIN TEMP:  42; 6HR MAX TEMP:  47;

MENOMONIE      CLOUDY    49  38  66 E3        29.97S
6HR MIN TEMP:  43; 6HR MAX TEMP:  49;

NEW RICHMOND   CLEAR     51  36  55 CALM      29.96R
6HR MIN TEMP:  48; 6HR MAX TEMP:  56;

OSCEOLA        CLEAR     55  34  44 NE6       29.98R
6HR MIN TEMP:  52; 6HR MAX TEMP:  57;

$$

WIZ003>005-009-010-017-018-280100-
NORTH CENTRAL WISCONSIN

CITY           SKY/WX    TMP DP  RH WIND       PRES   REMARKS
MANITOWISH WTR PTCLDY    44  32  60 NE3       29.96R
6HR MIN TEMP:  41; 6HR MAX TEMP:  49;

ARBOR VITAE    CLEAR     44  32  63 N3        29.95R
6HR MIN TEMP:  42; 6HR MAX TEMP:  47;

WOODRUFF       CLEAR     44  32  63 N3        29.95R
6HR MIN TEMP:  42; 6HR MAX TEMP:  47;

RHINELANDER    CLOUDY    44  32  62 NE6       29.96R
6HR MIN TEMP:  41; 6HR MAX TEMP:  47;

EAGLE RIVER    CLEAR     41  31  68 CALM      29.95R
6HR MIN TEMP:  40; 6HR MAX TEMP:  44;

LAND O LAKES   CLEAR     43  32  64 N3        29.97R
6HR MIN TEMP:  37; 6HR MAX TEMP:  45;

PHILLIPS       CLEAR     46  33  60 N5        29.95R
6HR MIN TEMP:  42; 6HR MAX TEMP:  49;

TOMAHAWK       CLEAR     44  32  63 CALM      29.96R
6HR MIN TEMP:  38; 6HR MAX TEMP:  46;

MEDFORD        CLOUDY    42  38  86 CALM      29.96R
6HR MIN TEMP:  38; 6HR MAX TEMP:  42;

MERRILL        CLOUDY    42  38  85 CALM      29.97R
6HR MIN TEMP:  38; 6HR MAX TEMP:  43;

$$

WIZ029-030-035-036-043>047-280100-
CENTRAL WISCONSIN

CITY           SKY/WX    TMP DP  RH WIND       PRES   REMARKS
WAUSAU         CLOUDY    43  38  82 N3        29.95R
6HR MIN TEMP:  40; 6HR MAX TEMP:  43;

MOSINEE        CLOUDY    43  39  87 N3        29.96R
MARSHFIELD     CLOUDY    42  37  82 N6        29.95R
6HR MIN TEMP:  40; 6HR MAX TEMP:  43;

STEVENS POINT  CLOUDY    41  38  91 CALM      29.96R
6HR MIN TEMP:  39; 6HR MAX TEMP:  42;

WAUPACA        CLOUDY    44  41  91 CALM      29.97R
6HR MIN TEMP:  44; 6HR MAX TEMP:  46;

WAUTOMA        NOT AVBL
WISC RAPIDS    CLOUDY    43  40  89 CALM      29.97S
6HR MIN TEMP:  43; 6HR MAX TEMP:  44;

CAMP DOUGLAS   CLOUDY    45  41  87 N5        29.95R
$$

WIZ011>013-019>022-031-037>040-048>050-280100-
NORTHEAST WISCONSIN

CITY           SKY/WX    TMP DP  RH WIND       PRES   REMARKS
ANTIGO         CLOUDY    39  37  92 NE5       29.95R
6HR MIN TEMP:  38; 6HR MAX TEMP:  41;

SHAWANO        CLOUDY    44  39  83 CALM      29.96S
OCONTO         CLOUDY    38  33  83 SE3       29.97S
6HR MIN TEMP:  38; 6HR MAX TEMP:  39;

STURGEON BAY   CLOUDY    39  36  89 CALM      29.96F
6HR MIN TEMP:  37; 6HR MAX TEMP:  40;

GREEN BAY      CLOUDY    41  37  86 NE5       29.97S
6HR MIN TEMP:  40; 6HR MAX TEMP:  44;

MANITOWOC      CLOUDY    37  36  93 E3        29.99R
6HR MIN TEMP:  38; 6HR MAX TEMP:  41;

APPLETON       CLOUDY    41  39  93 VRB5      29.94S
CLINTONVILLE   CLOUDY    43  37  81 CALM      29.96R
OSHKOSH        CLOUDY    42  38  85 NE7       29.96R FOG
6HR MIN TEMP:  42; 6HR MAX TEMP:  46;

$$

WIZ032>034-041-042-053>061-280100-
SOUTHWEST WISCONSIN

CITY           SKY/WX    TMP DP  RH WIND       PRES   REMARKS
LA CROSSE      CLOUDY    47  41  80 NW7       29.96R
6HR MIN TEMP:  45; 6HR MAX TEMP:  50;

SPARTA         CLOUDY    46  41  83 NW5       29.97R
6HR MIN TEMP:  45; 6HR MAX TEMP:  48;

VIROQUA        CLOUDY    44  44 100 N5        29.94S
6HR MIN TEMP:  44; 6HR MAX TEMP:  47;

BOSCOBEL       CLOUDY    49  46  90 CALM      29.95R
6HR MIN TEMP:  47; 6HR MAX TEMP:  52;

PRAIRIE DU CHI CLOUDY    46  44  92 NW3       29.95R
6HR MIN TEMP:  44; 6HR MAX TEMP:  47;

PLATTEVILLE    CLOUDY    48  46  95 N3        29.94R
6HR MIN TEMP:  47; 6HR MAX TEMP:  49;

$$

WIZ056-057-062-063-064-067-068-280100-
SOUTH CENTRAL WISCONSIN

CITY           SKY/WX    TMP DP  RH WIND       PRES   REMARKS
REEDSBURG      CLOUDY    46  45  96 N3        29.94R
6HR MIN TEMP:  43; 6HR MAX TEMP:  48;

BARABOO/DELLS  CLOUDY    47  42  85 N5        29.94R
6HR MIN TEMP:  44; 6HR MAX TEMP:  47;

LONE ROCK      CLOUDY    48  44  86 CALM      29.95R
6HR MIN TEMP:  47; 6HR MAX TEMP:  50;

MINERAL POINT  CLOUDY    46  46 100 N3        29.94R
MADISON        CLOUDY    46  43  89 N6        29.94R
6HR MIN TEMP:  46; 6HR MAX TEMP:  48;

MIDDLETON      CLOUDY    48  46  91 CALM      29.94R
6HR MIN TEMP:  46; 6HR MAX TEMP:  49;

WATERTOWN      CLOUDY    46  46  97 N5        29.94R
6HR MIN TEMP:  46; 6HR MAX TEMP:  48;

MONROE         CLOUDY    46  43  87 N7        29.92R
JANESVILLE     CLOUDY    50  43  76 N7        29.92R
$$

WIZ051-052-058>065-066-070>072-280100-
SOUTHEAST WISCONSIN

CITY           SKY/WX    TMP DP  RH WIND       PRES   REMARKS
MILWAUKEE      DRIZZLE   40  36  86 NE7       29.95S
6HR MIN TEMP:  40; 6HR MAX TEMP:  46; 6HR PCP: TRACE;

WAUKESHA       NOT AVBL
MILWAUKEE/TIMM CLOUDY    39  34  81 NE6       29.96R WCI  35
RACINE         CLOUDY    40  35  83 N8        29.96R WCI  34
6HR MIN TEMP:  40; 6HR MAX TEMP:  46;

KENOSHA        CLOUDY    43  38  82 NE9       29.93S
6HR MIN TEMP:  43; 6HR MAX TEMP:  45;

FOND DU LAC    CLOUDY    43  37  79 NE8       29.96R
6HR MIN TEMP:  43; 6HR MAX TEMP:  48;

SHEBOYGAN      CLOUDY    38  33  82 E8        29.97R WCI  32
6HR MIN TEMP:  38; 6HR MAX TEMP:  43;

WEST BEND      CLOUDY    41  37  87 E7        29.96R
JUNEAU         CLOUDY    44  43  95 N3        29.95S FOG
6HR MIN TEMP:  44; 6HR MAX TEMP:  46;

$$

LSZ147-162-280100-
LAKE SUPERIOR

STATION/POSITION TIME  TEMP    WIND        PRES    WAVE
                       AIR SEA DIR/SP/G            HT/PER
                 (UTC) (F)     (DEG/KT/KT) (MB)    (FT/S)
DEVILS ISLAND    0000   37      80/  3/  4 1016.9R
PORT WING        2330   38     330/  3/  5 1016.3R
SAXON HARBOR     2340   35      CALM  /  3 1015.9R
$$

LMZ867-665-643>646-280100-
LAKE MICHIGAN

STATION/POSITION TIME  TEMP    WIND        PRES    WAVE
                       AIR SEA DIR/SP/G            HT/PER
                 (UTC) (F)     (DEG/KT/KT) (MB)    (FT/S)
CHAMBERS ISLAND  2340   38      CALM  /  2 1014.6S
NORTHPORT PIER   2340   35     320/  2/  3 1015.2R
SISTER BAY       2336   37        CALM       N/A
KEWAUNEE LAKESHO 2354   37      CALM  /  2 1014.7R
SHEBOYGAN LAKESH 0000   36      10/  4/  4 1015.6R
PORT WASHINGTON  2340   38      40/  8/  9 1015.9R
MILWAUKEE LAKESH 0000


USA.gov is the U.S. government's official web portal to all federal, state and local government web resources and services.